Content
SEND FEEDBACK

Daily
Averages
Monthly
Summary
United States of America

MERIZO, GUAM


Home > North America > United States > Guam
Elevation: 10 feet     Latitude: 13 14N     Longitude: 144 39E

WEATHER
 
SELECT A DAY
Number of Records: 350,330;   Date Range: 1/1/95 - 10/1/14
 
SHARE

PRINT THIS DATA

[ ← Previous Day ]
WEATHER ALMANAC - APRIL 25, 2014
[ Next Day → ]
[ °C ]   °F
Weather ElementAverageHighLow
Temperature80.5 °F84.7 °F (11:58 am)77.9 °F (3:58 am)
Dewpoint72.7 °F75 °F (7:58 pm)70.3 °F (3:58 am)
Humidity77.2 %87 % (7:58 pm)65 % (11:58 am)
Barometer29.83 in29.88 in (9:38 pm)29.77 in (3:58 am)
Wind Speed14.3 mph19.6 mph (10:28 am)
Wind Gust24.2 mph (9:33 am)
Weather ElementAverage
Visibility10 mi
Wind DirectionENE (68.1 °)

Weather ElementTotal
Precipitation---
Cooling Degree Days16.3 (Base 65)
Growing Degree Days31.3 (Base 50)
Averaged from 43 records on April 25, 2014
WEATHER CONDITIONS BREAKOUT
WIND DIRECTION BREAKOUT
WEATHER BY HOUR - APRIL 25, 2014
[ °C ]   °F
Local TimeTemperatureDewpointHumidityBarometerVisibilityWind DirectionWind SpeedGust SpeedPrecipitationEventsConditions
12:58 AM78.8 °F73.0 °F82 %29.81 in10.0 miNE (50°)15.0 mphOvercast
1:20 AM78.8 °F73.4 °F83 %29.84 in10.0 miNE (50°)18.4 mphOvercast
1:25 AM78.8 °F73.4 °F83 %29.83 in10.0 miNE (50°)15.0 mphOvercast
1:35 AM78.8 °F71.6 °F78 %29.83 in10.0 miNE (50°)18.4 mphMostly Cloudy
1:58 AM78.3 °F71.6 °F80 %29.81 in10.0 miENE (60°)16.1 mphScattered Clouds
2:43 AM78.8 °F71.6 °F78 %29.82 in10.0 miNE (50°)16.1 mphMostly Cloudy
2:58 AM78.1 °F71.8 °F81 %29.78 in10.0 miENE (60°)18.4 mphMostly Cloudy
3:08 AM78.8 °F71.6 °F78 %29.81 in10.0 miNE (50°)16.1 mphScattered Clouds
3:58 AM77.9 °F70.3 °F77 %29.77 in10.0 miENE (60°)15.0 mphClear
4:58 AM77.9 °F70.9 °F79 %29.78 in10.0 miNE (50°)15.0 mphClear
5:58 AM77.9 °F71.1 °F79 %29.81 in10.0 miENE (60°)13.8 mphPartly Cloudy
6:58 AM79.2 °F71.2 °F77 %29.81 in10.0 miENE (60°)15.0 mphClear
7:58 AM81.5 °F72.0 °F73 %29.83 in10.0 miENE (70°)15.0 mphClear
8:58 AM82.0 °F73.0 °F74 %29.84 in10.0 miENE (70°)13.8 mphScattered Clouds
9:03 AM82.4 °F73.4 °F74 %29.87 in10.0 miENE (70°)15.0 mphMostly Cloudy
9:18 AM82.4 °F73.4 °F74 %29.87 in10.0 miENE (70°)15.0 mphScattered Clouds
9:33 AM82.4 °F73.4 °F74 %29.87 in10.0 miENE (60°)18.4 mph24.2 mphScattered Clouds
9:53 AM84.2 °F73.4 °F70 %29.87 in10.0 miENE (70°)17.3 mphMostly Cloudy
9:58 AM83.1 °F72.7 °F71 %29.84 in10.0 miENE (70°)16.1 mphMostly Cloudy
10:28 AM84.2 °F73.4 °F70 %29.87 in10.0 miEast (80°)19.6 mphScattered Clouds
10:58 AM84.4 °F72.3 °F67 %29.84 in10.0 miEast (80°)19.6 mphPartly Cloudy
11:58 AM84.7 °F71.8 °F65 %29.82 in10.0 miEast (80°)19.6 mphPartly Cloudy
12:58 PM84.7 °F72.1 °F66 %29.81 in10.0 miEast (90°)17.3 mphMostly Cloudy
1:58 PM84.6 °F72.7 °F67 %29.78 in10.0 miENE (70°)16.1 mphPartly Cloudy
2:53 PM84.2 °F71.6 °F66 %29.80 in10.0 miEast (80°)17.3 mph21.9 mphMostly Cloudy
2:58 PM84.2 °F72.3 °F67 %29.77 in10.0 miEast (90°)15.0 mph21.9 mphScattered Clouds
3:58 PM83.8 °F73.0 °F70 %29.77 in10.0 miENE (70°)16.1 mphScattered Clouds
4:58 PM82.2 °F72.7 °F73 %29.77 in10.0 miEast (80°)12.7 mphPartly Cloudy
5:58 PM80.6 °F73.6 °F79 %29.79 in10.0 miENE (70°)9.2 mphPartly Cloudy
6:58 PM79.5 °F74.1 °F83 %29.82 in10.0 miEast (90°)9.2 mphPartly Cloudy
7:58 PM79.2 °F75.0 °F87 %29.83 in10.0 miENE (60°)10.4 mphPartly Cloudy
8:58 PM78.8 °F73.0 °F82 %29.84 in10.0 miEast (80°)10.4 mphClear
9:18 PM78.8 °F73.4 °F83 %29.87 in10.0 miEast (80°)11.5 mphMostly Cloudy
9:28 PM78.8 °F73.4 °F83 %29.87 in10.0 miEast (90°)9.2 mphScattered Clouds
9:33 PM78.8 °F73.4 °F83 %29.87 in10.0 miEast (80°)10.4 mphMostly Cloudy
9:38 PM78.8 °F73.4 °F83 %29.88 in10.0 miENE (70°)10.4 mphScattered Clouds
9:58 PM79.0 °F73.2 °F82 %29.86 in10.0 miENE (70°)10.4 mphScattered Clouds
10:23 PM78.8 °F73.4 °F83 %29.88 in10.0 miENE (60°)9.2 mphMostly Cloudy
10:28 PM78.8 °F73.4 °F83 %29.88 in10.0 miENE (60°)12.7 mphMostly Cloudy
10:43 PM78.8 °F73.4 °F83 %29.88 in10.0 miENE (60°)12.7 mphMostly Cloudy
10:53 PM78.8 °F73.4 °F83 %29.87 in10.0 miENE (70°)10.4 mphScattered Clouds
10:58 PM78.8 °F73.6 °F84 %29.84 in10.0 miENE (70°)9.2 mphScattered Clouds
11:58 PM78.6 °F72.7 °F82 %29.82 in10.0 miENE (70°)11.5 mphScattered Clouds
Hourly data recorded from PGUA, located miles away from Merizo, Guam







STORIES FROM OUR PARTNERS